Regional Weather Roundup
Issued by NWS

Home | Current Version | Previous Version | Graphics & Text | Print | Product List | Glossary On
Versions: 1 2 3 4 5 6 7 8 9 10 11 12 13 14 15 16 17 18 19 20 21 22 23 24 25 26 27 28 29 30 31 32 33 34 35 36 37 38 39 40 41 42 43 44 45 46 47 48 49 50
000
ASUS43 KDMX 302307
RWRIA

WEATHER ROUNDUP FOR IOWA
NATIONAL WEATHER SERVICE DES MOINES IA
600 PM CDT SAT MAY 30 2015

NOTE: "FAIR" INDICATES FEW OR NO CLOUDS BELOW 12,000 FEET WITH NO
SIGNIFICANT WEATHER AND/OR OBSTRUCTIONS TO VISIBILITY.

* - THESE STATIONS ARE NOT NWS STATIONS...THUS NOT UNDER NWS
QUALITY CONTROL.  THEY ALSO DO NOT REPORT WEATHER SUCH
AS PRECIPITATION OR FOG.

IAZ001>003-012>014-020>022-031>034-043>046-310000-
   NORTHWEST IOWA

CITY           SKY/WX    TMP DP  RH WIND       PRES   REMARKS
CARROLL *      SUNNY     64  46  52 N18       30.16S
CHEROKEE *     SUNNY     63  41  45 NE10G16   30.19S
DENISON *      SUNNY     64  45  48 NE14G20   30.15S
LE MARS *      SUNNY     64  43  45 NE16      30.21F
ORANGE CITY *  SUNNY     63  41  45 NE8       30.21S
SHELDON *      SUNNY     63  52  67 NE15      30.20F
SIOUX CITY     SUNNY     68  42  38 NE14G24   30.19F
SPENCER        SUNNY     64  43  46 N20       30.20S
STORM LAKE *   SUNNY     63  39  42 NE17      30.19S
$$

IAZ055>058-069>071-079>083-090>094-310000-
   SOUTHWEST IOWA

CITY           SKY/WX    TMP DP  RH WIND       PRES   REMARKS
ATLANTIC *     PTSUNNY   64  52  63 N15G23    30.15S
AUDUBON *      MOSUNNY   64  52  63 N10G18    30.16F
CLARINDA *     CLOUDY    61  54  77 N16       30.16S
COUNCIL BLFS * SUNNY     66  45  45 NE13G21   30.15F
CRESTON *      CLOUDY    61  54  77 N15G23    30.13S
HARLAN  *      SUNNY     66  48  52 NE17      30.18F
LAMONI         CLOUDY    64  54  69 N14G21    30.11R
RED OAK *      MOSUNNY   66  54  63 NE14      30.14F
SHENANDOAH *   PTSUNNY   66  54  63 NE13G21   30.14F
$$

IAZ047>049-059>061-072>074-084-310000-
   CENTRAL IOWA

CITY           SKY/WX    TMP DP  RH WIND       PRES   REMARKS
AMES           CLOUDY    60  51  72 NE13G23   30.15R
ANKENY *       CLOUDY    61  54  77 N12G17    30.13F
CHARITON *     CLOUDY    61  55  82 N12G18    30.11S
DES MOINES     CLOUDY    62  52  69 N14       30.13S
GRINNELL*      CLOUDY    59  54  82 N16       30.12S
KNOXVILLE *    CLOUDY    59  54  82 N10       30.10F
MARSHALLTOWN   CLOUDY    59  53  80 N16       30.13S
PELLA *        CLOUDY    61  57  88 N10G17    30.12S
PERRY *        CLOUDY    61  52  72 NE12      30.15F
$$

IAZ004>006-015-016-023>025-035-036-310000-
   NORTH CENTRAL IOWA

CITY           SKY/WX    TMP DP  RH WIND       PRES   REMARKS
ALGONA *       SUNNY     61  46  59 NE16G23   30.19S
CLARION *      CLOUDY    59  50  72 NE12G18   30.18S
ESTHERVILLE    SUNNY     61  44  53 N14       30.20
FORT DODGE *   PTSUNNY   63  48  59 NE12      30.18S
MASON CITY     CLOUDY    59  50  72 N17       30.20S
FOREST CITY *  PTSUNNY   55  45  67 NE5G20    30.19S
IOWA FALLS *   CLOUDY    59  52  77 N9        30.17S
$$

IAZ007>011-017>019-026>030-037>042-050>054-066-310000-
   NORTHEAST IOWA

CITY           SKY/WX    TMP DP  RH WIND       PRES   REMARKS
CEDAR RAPIDS   CLOUDY    58  53  84 NE20G26   30.10R
CHARLES CITY * CLOUDY    59  54  82 N14       30.18S
CLINTON *      CLOUDY    54  48  82 NE16      30.12R
DECORAH *      PTSUNNY   59  52  77 N10       30.15S
DUBUQUE        CLOUDY    55  47  74 NE17G25   30.12R
MONTICELLO *   CLOUDY    57  52  82 NE13G25   30.12R
OELWEIN *      PTSUNNY   57  55  94 NE16      30.15S FOG
WATERLOO       CLOUDY    59  53  80 NE12      30.14R
$$

IAZ064-065-067-068-078-310000-
   EAST CENTRAL IOWA

CITY           SKY/WX    TMP DP  RH WIND       PRES   REMARKS
DAVENPORT      CLOUDY    55  49  80 NE24G32   30.09R
IOWA CITY      CLOUDY    59  52  77 NE14G29   30.10R
MT. PLEASANT * CLOUDY    59  54  82 N18G26    30.06S
MUSCATINE *    CLOUDY    59  52  77 NE23G29   30.08S
QUAD CITIES    LGT RAIN  55  51  86 NE14      30.07S FOG
$$

IAZ062-063-075>077-085>089-095>099-310000-
   SOUTHEAST IOWA

CITY           SKY/WX    TMP DP  RH WIND       PRES   REMARKS
BURLINGTON     CLOUDY    59  55  87 N18G28    30.03R
FAIRFIELD *    CLOUDY    59  54  82 NE18G25   30.08R
FORT MADISON * CLOUDY    61  57  88 N10G17    30.04S
KEOKUK *       CLOUDY    63  59  88 N13G21    30.02R
OSKALOOSA *    CLOUDY    59  55  88 N13       30.09S
CENTERVILLE *  CLOUDY    59  59 100 N13       30.10S
OTTUMWA        CLOUDY    60  57  89 N15G22    30.08S
WASHINGTON *   CLOUDY    59  54  82 NE18G25   30.09S
$$

ABBREVIATIONS USED IN REMARKS
   TC - TEMPERATURES IN CELSIUS
  WCI - WIND CHILL INDEX
   HX - HEAT INDEX
  VSB - VISIBILITY
$$



USA.gov is the U.S. government's official web portal to all federal, state and local government web resources and services.